Location: Augsburg
(48.3836°N, 10.8929°E)
Time: 08:37:08
(UTC+01:00)

ISS - Pass Details

Date: 13 November 2017
Orbit: 402 x 407 km, 51.6° (Epoch: 24 November)

Event Time Altitude Azimuth Distance (km) Brightness Sun altitude
Exits shadow 06:35:11 11° 281° (W) 1,428 -1.7 -7.9°
Maximum altitude 06:38:08 36° 214° (SW) 657 -2.9 -7.4°
Drops below altitude 10° 06:41:09 10° 146° (SE) 1,450 -0.1 -6.9°
Sets 06:43:19 0° 137° (SE) 2,306 1.3 -6.6°
